Regional Weather Roundup
Issued by NWS Northern Indiana

Home | Current Version | Previous Version | Graphics & Text | Print | Product List | Glossary On
Versions: 1 2 3 4 5 6 7 8 9 10 11 12 13 14 15 16 17 18 19 20 21 22 23 24 25 26 27 28 29 30 31 32 33 34 35 36 37 38 39 40 41 42 43 44 45 46 47 48 49 50
000
ASUS43 KIWX 230001
RWRIWX

KIWX WEATHER ROUNDUP
NATIONAL WEATHER SERVICE NORTHERN INDIANA
800 PM EDT FRI SEP 22 2017

NOTE: "FAIR" INDICATES FEW OR NO CLOUDS BELOW 12,000 FEET WITH NO
SIGNIFICANT WEATHER AND/OR OBSTRUCTIONS TO VISIBILITY.

* THESE STATIONS ARE NOT UNDER NWS QUALITY CONTROL. THEY ALSO MAY NOT
  REPORT WEATHER SUCH AS PRECIPITATION OR FOG.

INZ001>027-230100-
NORTHERN INDIANA

CITY           SKY/WX    TMP DP  RH WIND       PRES   REMARKS
GARY*          PTCLDY    84  64  51 E6        30.04R
MICHIGAN CITY* CLEAR     77  70  78 CALM      30.05S
LAPORTE*       CLEAR     81  69  67 SE3       30.06S
6HR MIN TEMP:  81; 6HR MAX TEMP:  92;

KNOX*          CLEAR     81  68  65 E5        30.04S
SOUTH BEND     CLEAR     82  70  66 CALM      30.06S
6HR MIN TEMP:  82; 6HR MAX TEMP:  90;

ELKHART*       CLEAR     81  70  69 CALM      30.06S
GOSHEN         CLEAR     80  67  64 CALM      30.07R
6HR MIN TEMP:  80; 6HR MAX TEMP:  93;

MONTICELLO*    CLEAR     82  68  63 CALM      30.04S
6HR MIN TEMP:  82; 6HR MAX TEMP:  92;

WARSAW*        CLEAR     79  70  73 CALM      30.07S
AUBURN*        CLEAR     79  70  73 CALM      30.08S
FORT WAYNE     PTCLDY    81  70  69 CALM      30.07S
6HR MIN TEMP:  80; 6HR MAX TEMP:  92; 6HR PCP: TRACE;


$$
INZ028>050-230100-
CENTRAL INDIANA

CITY           SKY/WX    TMP DP  RH WIND       PRES   REMARKS
LAFAYETTE      CLOUDY    79  70  74 CALM      30.04R
6HR MIN TEMP:  79; 6HR MAX TEMP:  92;

KOKOMO*        CLOUDY    78  68  71 CALM      30.07S
6HR MIN TEMP:  78; 6HR MAX TEMP:  93; 6HR PCP: TRACE;

MUNCIE*        CLOUDY    75  71  87 CALM      30.06S
6HR MIN TEMP:  75; 6HR MAX TEMP:  93; 6HR PCP:  0.02;

INDIANAPOLIS   MOCLDY    80  66  62 NE7       30.05R
6HR MIN TEMP:  80; 6HR MAX TEMP:  93; 6HR PCP: TRACE;


$$
MIZ043>046-050>051-056>058-064>065-071>073-077>080-230100-
SOUTHWEST LOWER MICHIGAN

CITY           SKY/WX    TMP DP  RH WIND       PRES   REMARKS
BATTLE CREEK   CLEAR     83  64  52 SE8       30.08S
6HR MIN TEMP:  83; 6HR MAX TEMP:  93;

BENTON HARBOR  CLEAR     77  68  73 CALM      30.05S
6HR MIN TEMP:  77; 6HR MAX TEMP:  91;

COLDWATER*     CLEAR     79  61  55 S3        30.08F
6HR MIN TEMP:  79; 6HR MAX TEMP:  92;

HILLSDALE*     PTCLDY    73  61  64 CALM      30.09F
HOLLAND        CLEAR     78  65  63 CALM      30.06F
6HR MIN TEMP:  78; 6HR MAX TEMP:  93;

GRAND RAPIDS   PTCLDY    86  65  49 W7        30.06S
6HR MIN TEMP:  86; 6HR MAX TEMP:  95;

KALAMAZOO      CLEAR     84  64  50 CALM      30.06F
6HR MIN TEMP:  84; 6HR MAX TEMP:  93;

STURGIS*       CLEAR     81  67  63 E6        30.07R
6HR MIN TEMP:  80; 6HR MAX TEMP:  92;

THREE RIVERS*  FAIR      83  68  59 CALM      30.07S
6HR MIN TEMP:  82; 6HR MAX TEMP:  93;


$$
OHZ001>008-015>018-024>025-230100-
NORTHWEST OHIO

CITY           SKY/WX    TMP DP  RH WIND       PRES   REMARKS
DEFIANCE       CLEAR     81  69  67 E3        30.07S
6HR MIN TEMP:  81; 6HR MAX TEMP:  92; 6HR PCP: TRACE;

FINDLAY        CLEAR     82  65  56 NE7       30.07R
6HR MIN TEMP:  82; 6HR MAX TEMP:  91;

TOLEDO EXPRESS CLEAR     77  72  84 E3        30.07F
6HR MIN TEMP:  77; 6HR MAX TEMP:  92;

TOLEDO METCALF CLEAR     78  65  63 E3        30.08F
6HR MIN TEMP:  78; 6HR MAX TEMP:  89;

LIMA           CLEAR     78  68  71 NE5       30.07S
6HR MIN TEMP:  76; 6HR MAX TEMP:  91;


$$
AND FOR LAKE MICHIGAN COASTAL AND OPEN LAKE BUOY OBSERVATIONS

STATION/POSITION TEMP    WIND        PRES    VSBY  WAVE
                 AIR SEA DIR/SP/G                  HT/PER
                 (F)     (DEG/KT/KT) (MB)    (MI)  (FT/S)
CALUMET HARBOR    79     100/  8/ 11 1016.4R
MICHIGAN CITY     80      50/ 13/ 14   N/A
BURNS HARBOR      76      80/  9/ 12 1017.6R
SAINT JOSEPH      85      20/  4/  6 1017.9
SOUTH LAKE BUOY   74 71  100/  6/  8 1017.2          0
4 MI NW BRIDGMAN  76 74   80/  6/  6 1016.9F         0
MICHIGAN CITY     75 73   80/  6/  8   N/A           0

$$
&&




USA.gov is the U.S. government's official web portal to all federal, state and local government web resources and services.